GROUP/SHIP,CRUISE_DESIGNATION,JD_GMT,DATE_DDMMYYYY,TIME_HH:MM:SS,LAT_DEC_DEGREE,LONG_DEC_DEGREE,xCO2W_PPM,xCO2A_PPM,PRES_EQUIL_hPa,PRES_SEALEVEL_hPa,EqTEMP_C,SST(TSG)_C,SAL(TSG)_PERMIL,WATER_FLOW_L/MIN,GAS_FLOW_IR_ML/MIN,TEMP_IR_C,PRES_IR_hPa,SHIP_HEADING_TRUE_DEGREE,SHIP_SPEED_KNOT,WIND_DIR_REL_DEGREE,WIND_SPEED_REL_M/S,fCO2W@SST_uATM,QC_FLAG_WATER,fCO2A_uATM,QC_FLAG_AIR,dfCO2_uATM,FLUORO_uG/L,WIND_SPEED_TRUE_M/S,WIND_DIR_TRUE_DEGREE,AIR_TEMP_C
AOML_Brown,RB200305,240.595,28082003,14:17:19,18.264,-62.893,404.85,373.64,1016.02,1016.29,28.84,28.81,35.19,11.70,241.47,27.15,1016.02,-9,-9,35.40,12.18,388.78,2,359.16,2,29.63,0.67,7.77,83.42,-9
AOML_Brown,RB200305,240.598,28082003,14:21:44,18.280,-62.889,401.48,373.64,1016.14,1016.35,28.86,28.81,35.12,11.51,242.40,27.61,1016.14,-9,-9,34.30,11.48,385.29,2,359.16,2,26.13,0.65,7.07,83.93,-9
AOML_Brown,RB200305,240.602,28082003,14:26:15,18.296,-62.885,398.70,373.64,1016.02,1016.30,28.87,28.82,35.09,11.61,243.83,28.02,1016.02,-9,-9,32.40,11.19,382.67,2,359.16,2,23.51,0.64,6.53,85.14,-9
AOML_Brown,RB200305,240.605,28082003,14:30:45,18.312,-62.887,397.35,373.64,1015.94,1016.25,28.90,28.84,35.14,11.61,242.01,28.39,1015.94,-9,-9,48.70,11.29,381.05,2,359.16,2,21.90,0.63,8.48,76.58,-9
AOML_Brown,RB200305,240.616,28082003,14:47:16,18.374,-62.898,398.01,373.64,1015.92,1016.24,28.89,28.82,35.23,11.59,235.79,29.41,1015.92,-9,-9,52.20,10.78,381.66,2,359.16,2,22.51,0.62,8.53,84.30,-9
AOML_Brown,RB200305,240.619,28082003,14:51:45,18.391,-62.901,397.72,373.64,1015.90,1016.29,28.88,28.81,35.24,11.56,233.90,29.61,1015.90,-9,-9,57.10,11.39,381.35,2,359.16,2,22.19,0.63,9.59,86.95,-9
AOML_Brown,RB200305,240.622,28082003,14:56:15,18.408,-62.904,398.77,373.64,1016.15,1016.28,28.91,28.87,35.40,11.39,238.66,29.78,1016.15,-9,-9,66.20,11.39,382.76,2,359.16,2,23.60,0.65,10.72,92.22,-9
AOML_Brown,RB200305,240.626,28082003,15:00:45,18.424,-62.908,403.32,373.64,1015.92,1016.27,28.93,28.86,35.50,11.55,240.77,29.93,1015.92,-9,-9,55.20,12.18,386.73,2,359.16,2,27.58,0.70,10.01,82.51,-9
AOML_Brown,RB200305,240.637,28082003,15:17:19,18.488,-62.923,397.09,373.33,1015.85,1016.23,28.96,28.90,35.03,11.51,239.33,30.39,1015.85,-9,-9,57.90,11.29,380.79,2,358.72,2,22.06,0.62,9.65,91.89,-9
AOML_Brown,RB200305,240.640,28082003,15:21:45,18.505,-62.926,395.95,373.33,1015.78,1016.24,28.96,28.89,35.01,11.56,241.66,30.49,1015.78,-9,-9,50.20,11.88,379.52,2,358.72,2,20.79,0.63,9.14,81.91,-9
AOML_Brown,RB200305,240.643,28082003,15:26:15,18.523,-62.930,394.94,373.33,1015.83,1016.32,28.95,28.89,34.96,11.52,241.75,30.56,1015.83,-9,-9,54.30,12.49,378.73,2,358.72,2,20.00,0.63,10.14,84.42,-9
AOML_Brown,RB200305,240.646,28082003,15:30:45,18.539,-62.933,393.87,373.33,1015.73,1016.08,28.98,28.92,34.91,11.53,243.80,30.63,1015.73,-9,-9,57.50,12.49,377.68,2,358.72,2,18.95,0.62,10.54,85.78,-9
AOML_Brown,RB200305,240.658,28082003,15:47:16,18.603,-62.946,391.78,373.33,1015.84,1016.03,28.97,28.90,34.72,11.52,238.38,30.85,1015.84,-9,-9,59.20,12.09,375.51,2,358.72,2,16.79,0.61,10.40,87.19,-9
AOML_Brown,RB200305,240.661,28082003,15:51:45,18.619,-62.949,391.54,373.33,1015.66,1016.01,28.98,28.91,34.72,11.51,238.41,30.91,1015.66,-9,-9,63.00,13.68,375.25,2,358.72,2,16.52,0.61,12.22,89.81,-9
AOML_Brown,RB200305,240.664,28082003,15:56:15,18.636,-62.952,391.75,373.33,1015.72,1016.15,28.99,28.92,34.71,11.39,241.05,30.93,1015.72,-9,-9,55.00,12.18,375.51,2,358.72,2,16.79,0.62,9.98,86.15,-9
AOML_Brown,RB200305,240.667,28082003,16:00:45,18.653,-62.955,391.80,373.33,1015.65,1015.91,28.99,28.92,34.72,11.50,239.85,30.96,1015.65,-9,-9,48.10,11.79,375.43,2,358.72,2,16.71,0.61,8.79,83.44,-9
AOML_Brown,RB200305,240.679,28082003,16:17:19,18.714,-62.968,392.64,373.26,1015.60,1016.02,29.04,28.98,34.75,11.44,240.31,31.06,1015.60,-9,-9,60.90,11.48,376.38,2,358.55,2,17.83,0.61,10.16,92.56,-9
AOML_Brown,RB200305,240.682,28082003,16:21:45,18.730,-62.971,392.97,373.26,1015.63,1016.02,29.04,28.98,34.75,11.49,243.18,31.08,1015.63,-9,-9,55.70,11.39,376.61,2,358.55,2,18.06,0.61,9.42,86.81,-9
AOML_Brown,RB200305,240.685,28082003,16:26:15,18.748,-62.975,393.12,373.26,1015.60,1015.88,29.04,28.98,34.73,11.53,242.40,31.08,1015.60,-9,-9,57.70,12.58,376.78,2,358.55,2,18.23,0.61,10.64,84.54,-9
AOML_Brown,RB200305,240.688,28082003,16:30:45,18.764,-62.978,392.93,373.26,1015.50,1015.74,29.04,28.98,34.68,11.45,243.26,31.09,1015.50,-9,-9,37.80,12.29,376.57,2,358.55,2,18.02,0.61,7.97,63.10,-9
AOML_Brown,RB200305,240.699,28082003,16:47:16,18.825,-62.991,391.22,373.26,1015.80,1015.66,28.97,28.90,34.59,11.49,241.22,31.14,1015.80,-9,-9,58.00,10.98,374.95,2,358.55,2,16.40,0.61,9.41,91.73,-9
AOML_Brown,RB200305,240.703,28082003,16:51:45,18.839,-62.994,390.96,373.26,1015.42,1015.62,28.95,28.87,34.54,11.44,239.94,31.17,1015.42,-9,-9,58.80,11.29,374.53,2,358.55,2,15.98,0.62,9.69,77.53,-9
AOML_Brown,RB200305,240.706,28082003,16:56:15,18.851,-62.997,391.16,373.26,1015.41,1015.73,28.95,28.89,34.52,11.58,242.87,31.18,1015.41,-9,-9,60.20,10.59,374.90,2,358.55,2,16.35,0.60,9.19,81.69,-9
AOML_Brown,RB200305,240.709,28082003,17:00:45,18.862,-63.002,391.46,373.26,1015.43,1015.74,28.96,28.90,34.50,11.42,243.53,31.16,1015.43,-9,-9,83.30,8.59,375.28,2,358.55,2,16.73,0.61,9.42,82.93,-9
AOML_Brown,RB200305,240.720,28082003,17:17:19,18.870,-63.052,391.77,373.43,1015.23,1015.65,28.96,28.90,34.53,11.36,241.36,31.21,1015.23,-9,-9,65.80,0.00,375.42,2,358.54,2,16.88,0.61,5.87,88.20,-9
AOML_Brown,RB200305,240.723,28082003,17:21:45,18.869,-63.066,391.84,373.43,1015.22,1015.56,28.96,28.91,34.54,11.41,241.97,31.20,1015.22,-9,-9,154.60,2.29,375.66,2,358.54,2,17.13,0.61,7.90,81.54,-9
AOML_Brown,RB200305,240.727,28082003,17:26:15,18.869,-63.082,391.69,373.43,1015.13,1015.52,28.95,28.92,34.57,11.46,244.72,31.21,1015.13,-9,-9,154.10,3.80,375.71,2,358.54,2,17.18,0.61,9.33,76.16,-9
AOML_Brown,RB200305,240.730,28082003,17:30:45,18.869,-63.096,391.77,373.43,1015.17,1015.47,28.97,28.95,34.59,11.41,243.55,31.19,1015.17,-9,-9,152.20,2.50,375.94,2,358.54,2,17.41,0.61,7.59,79.29,-9
AOML_Brown,RB200305,240.741,28082003,17:47:16,18.868,-63.152,392.97,373.43,1014.98,1015.33,29.06,29.02,34.79,11.46,237.91,31.21,1014.98,-9,-9,144.40,2.50,376.66,2,358.54,2,18.13,0.61,8.18,77.17,-9
AOML_Brown,RB200305,240.744,28082003,17:51:45,18.868,-63.166,393.80,373.43,1014.94,1015.28,29.05,28.99,34.86,11.43,240.43,31.20,1014.94,-9,-9,137.00,3.49,377.22,2,358.54,2,18.68,0.61,8.85,71.48,-9
AOML_Brown,RB200305,240.747,28082003,17:56:15,18.868,-63.173,394.42,373.43,1014.95,1015.24,29.06,29.00,34.89,11.46,241.82,31.20,1014.95,-9,-9,142.30,2.20,377.71,2,358.54,2,19.18,0.62,7.87,76.88,-9
AOML_Brown,RB200305,240.751,28082003,18:00:45,18.867,-63.192,395.18,373.43,1014.81,1015.18,29.05,29.02,34.92,11.44,243.85,31.19,1014.81,-9,-9,123.90,2.60,378.87,2,358.54,2,20.34,0.62,7.77,71.29,-9
AOML_Brown,RB200305,240.762,28082003,18:17:19,18.867,-63.253,395.88,373.44,1014.76,1015.10,29.00,28.96,35.11,11.56,243.30,31.20,1014.76,-9,-9,129.80,2.80,379.36,2,358.37,2,21.00,0.60,8.10,70.01,-9
AOML_Brown,RB200305,240.765,28082003,18:21:45,18.866,-63.261,396.47,373.44,1014.73,1015.12,29.01,28.94,35.21,11.46,243.67,31.20,1014.73,-9,-9,129.90,1.80,379.53,2,358.37,2,21.16,0.61,7.00,75.35,-9
AOML_Brown,RB200305,240.768,28082003,18:26:15,18.866,-63.279,396.41,373.44,1014.70,1015.10,28.97,28.91,35.18,11.41,243.86,31.18,1014.70,-9,-9,169.70,2.40,379.65,2,358.37,2,21.28,0.61,8.13,82.98,-9
AOML_Brown,RB200305,240.771,28082003,18:30:45,18.865,-63.296,396.08,373.44,1014.53,1014.93,28.98,28.93,35.16,11.52,244.57,31.18,1014.53,-9,-9,122.20,1.00,379.38,2,358.37,2,21.01,0.60,6.50,81.54,-9
AOML_Brown,RB200305,240.783,28082003,18:47:16,18.870,-63.342,395.97,373.44,1014.52,1014.90,29.02,28.96,35.14,11.44,239.91,31.18,1014.52,-9,-9,139.70,3.40,379.08,2,358.37,2,20.72,0.60,8.54,74.79,-9
AOML_Brown,RB200305,240.786,28082003,18:51:45,18.875,-63.348,396.03,373.44,1014.44,1014.89,29.03,28.96,35.14,11.42,242.50,31.19,1014.44,-9,-9,139.70,3.40,379.05,2,358.37,2,20.68,0.60,8.54,74.79,-9
AOML_Brown,RB200305,240.789,28082003,18:56:15,18.880,-63.354,396.14,373.44,1014.41,1014.78,29.04,28.96,35.14,11.36,241.47,31.18,1014.41,-9,-9,139.70,3.40,378.95,2,358.37,2,20.59,0.60,8.54,74.79,-9
AOML_Brown,RB200305,240.792,28082003,19:00:45,18.884,-63.360,396.27,373.44,1014.36,1014.76,29.06,28.96,35.14,11.48,243.05,31.17,1014.36,-9,-9,139.70,3.40,378.82,2,358.37,2,20.45,0.60,8.54,74.79,-9
AOML_Brown,RB200305,240.804,28082003,19:17:19,18.904,-63.384,395.94,373.26,1014.27,1014.66,29.03,28.96,35.14,11.48,241.90,31.18,1014.27,-9,-9,139.70,3.40,378.90,2,357.95,2,20.95,0.60,8.54,74.79,-9
AOML_Brown,RB200305,240.807,28082003,19:21:45,18.908,-63.390,395.83,373.26,1014.24,1014.54,29.03,28.96,35.14,11.42,241.23,31.18,1014.24,-9,-9,139.70,3.40,378.72,2,357.95,2,20.77,0.60,8.54,74.79,-9
AOML_Brown,RB200305,240.810,28082003,19:26:15,18.913,-63.395,395.78,373.26,1014.16,1014.51,29.05,28.96,35.14,11.34,245.04,31.18,1014.16,-9,-9,139.70,3.40,378.37,2,357.95,2,20.42,0.60,8.54,74.79,-9
AOML_Brown,RB200305,240.813,28082003,19:30:45,18.918,-63.401,395.98,373.26,1013.99,1014.35,29.05,28.96,35.14,11.43,244.49,31.16,1013.99,-9,-9,139.70,3.40,378.47,2,357.95,2,20.52,0.60,8.54,74.79,-9
AOML_Brown,RB200305,240.824,28082003,19:47:16,18.937,-63.425,396.11,373.26,1013.80,1014.12,29.07,28.96,35.14,11.43,238.90,31.20,1013.80,-9,-9,139.70,3.40,378.30,2,357.95,2,20.36,0.60,8.54,74.79,-9
AOML_Brown,RB200305,240.828,28082003,19:51:45,18.942,-63.431,396.44,373.26,1013.88,1014.29,29.06,28.96,35.14,11.45,240.89,31.20,1013.88,-9,-9,139.70,3.40,378.75,2,357.95,2,20.80,0.60,8.54,74.79,-9
AOML_Brown,RB200305,240.831,28082003,19:56:15,18.947,-63.437,397.30,373.26,1013.95,1014.11,29.07,28.96,35.14,11.36,241.92,31.19,1013.95,-9,-9,139.70,3.40,379.45,2,357.95,2,21.50,0.60,8.54,74.79,-9
AOML_Brown,RB200305,240.834,28082003,20:00:45,18.952,-63.443,397.49,373.26,1014.03,1014.33,29.00,28.96,35.14,11.46,244.88,31.18,1014.03,-9,-9,139.70,3.40,380.64,2,357.95,2,22.69,0.60,8.54,74.79,-9
AOML_Brown,RB200305,240.845,28082003,20:17:19,18.966,-63.449,398.08,373.25,1013.99,1014.09,29.00,28.91,35.18,11.30,241.33,31.20,1013.99,-9,-9,354.10,12.68,380.51,2,357.99,2,22.52,0.62,7.64,81.57,-9
AOML_Brown,RB200305,240.848,28082003,20:21:44,18.965,-63.440,397.44,373.25,1013.87,1014.10,28.96,28.88,35.17,11.33,243.96,31.22,1013.87,-9,-9,358.20,13.18,380.07,2,357.99,2,22.08,0.61,7.89,90.99,-9
AOML_Brown,RB200305,240.852,28082003,20:26:15,18.965,-63.430,397.16,373.25,1013.79,1013.77,28.95,28.88,35.18,11.38,244.42,31.20,1013.79,-9,-9,350.10,12.58,379.88,2,357.99,2,21.89,0.62,7.32,75.91,-9
AOML_Brown,RB200305,240.855,28082003,20:30:45,18.965,-63.415,397.07,373.25,1013.79,1013.95,28.94,28.88,35.19,11.31,243.58,31.20,1013.79,-9,-9,6.80,12.99,379.92,2,357.99,2,21.93,0.62,7.80,103.37,-9
AOML_Brown,RB200305,240.866,28082003,20:47:16,18.966,-63.361,397.44,373.25,1013.85,1014.20,29.01,28.99,35.17,11.39,240.74,31.21,1013.85,-9,-9,359.40,11.09,380.85,2,357.99,2,22.86,0.61,6.15,89.62,-9
AOML_Brown,RB200305,240.869,28082003,20:51:45,18.966,-63.347,397.48,373.25,1013.71,1014.06,29.04,28.97,35.17,11.40,240.32,31.22,1013.71,-9,-9,355.70,11.19,380.05,2,357.99,2,22.07,0.61,6.17,82.49,-9
AOML_Brown,RB200305,240.872,28082003,20:56:15,18.966,-63.339,397.20,373.25,1013.90,1013.90,29.05,28.99,35.10,11.25,237.11,31.21,1013.90,-9,-9,344.70,11.59,380.00,2,357.99,2,22.01,0.62,6.95,66.38,-9
AOML_Brown,RB200305,240.876,28082003,21:00:45,18.966,-63.326,396.63,373.25,1013.90,1014.01,29.02,28.98,35.04,11.25,242.83,31.20,1013.90,-9,-9,348.00,11.48,379.79,2,357.99,2,21.80,0.61,6.78,70.58,-9
AOML_Brown,RB200305,240.887,28082003,21:17:19,18.966,-63.285,394.83,373.29,1013.53,1013.68,29.07,29.03,34.84,11.37,242.89,31.24,1013.53,-9,-9,344.20,12.29,377.81,2,357.96,2,19.86,0.62,7.51,66.06,-9
AOML_Brown,RB200305,240.890,28082003,21:21:45,18.966,-63.262,394.37,373.29,1013.55,1013.50,29.09,29.03,34.72,11.48,243.89,31.24,1013.55,-9,-9,344.70,12.68,377.14,2,357.96,2,19.19,0.64,7.33,65.94,-9
AOML_Brown,RB200305,240.893,28082003,21:26:15,18.966,-63.249,393.71,373.29,1013.60,1013.72,29.08,29.01,34.65,11.49,244.17,31.25,1013.60,-9,-9,350.70,14.18,376.44,2,357.96,2,18.48,0.61,8.65,78.63,-9
AOML_Brown,RB200305,240.896,28082003,21:30:45,18.966,-63.245,393.06,373.29,1013.70,1013.52,29.04,29.00,34.64,11.30,246.06,31.24,1013.70,-9,-9,347.80,13.49,376.29,2,357.96,2,18.34,0.61,8.19,74.03,-9
AOML_Brown,RB200305,240.908,28082003,21:47:16,18.967,-63.206,391.90,373.29,1013.74,1013.59,29.02,28.96,34.56,11.38,238.78,31.27,1013.74,-9,-9,350.10,12.58,374.94,2,357.96,2,16.99,0.60,6.88,76.87,-9
AOML_Brown,RB200305,240.911,28082003,21:51:45,18.967,-63.185,391.97,373.29,1013.65,1013.90,29.00,28.92,34.55,11.50,240.37,31.26,1013.65,-9,-9,347.70,13.38,374.67,2,357.96,2,16.71,0.60,7.28,69.94,-9
AOML_Brown,RB200305,240.914,28082003,21:56:15,18.968,-63.166,391.84,373.29,1013.62,1013.65,28.96,28.89,34.53,11.40,240.68,31.26,1013.62,-9,-9,345.40,14.98,374.74,2,357.96,2,16.78,0.61,9.16,65.79,-9
AOML_Brown,RB200305,240.917,28082003,22:00:45,18.968,-63.150,391.64,373.29,1013.67,1013.76,28.94,28.90,34.52,11.47,239.88,31.25,1013.67,-9,-9,344.40,12.79,374.95,2,357.96,2,17.00,0.60,7.13,63.76,-9
AOML_Brown,RB200305,240.929,28082003,22:17:19,18.968,-63.098,391.35,373.29,1013.94,1014.01,28.94,28.89,34.52,11.13,241.09,31.27,1013.94,-9,-9,347.70,13.98,374.64,2,358.08,2,16.56,0.60,8.14,69.52,-9
AOML_Brown,RB200305,240.932,28082003,22:21:45,18.969,-63.076,391.92,373.29,1013.91,1014.05,28.97,28.89,34.55,11.26,244.32,31.27,1013.91,-9,-9,351.10,12.99,374.83,2,358.08,2,16.75,0.60,7.00,74.52,-9
AOML_Brown,RB200305,240.935,28082003,22:26:15,18.969,-63.070,392.12,373.29,1014.00,1014.01,28.94,28.88,34.55,11.23,242.42,31.27,1014.00,-9,-9,350.60,13.78,375.25,2,358.08,2,17.17,0.60,7.82,74.49,-9
AOML_Brown,RB200305,240.938,28082003,22:30:45,18.969,-63.050,392.75,373.29,1014.06,1014.21,29.00,28.94,34.58,11.57,243.90,31.26,1014.06,-9,-9,347.20,13.88,375.84,2,358.08,2,17.76,0.60,7.79,68.85,-9
AOML_Brown,RB200305,240.949,28082003,22:47:16,18.970,-62.987,392.81,373.29,1014.08,1014.09,28.99,28.95,34.57,11.52,238.31,31.26,1014.08,-9,-9,353.50,13.49,376.29,2,358.08,2,18.22,0.60,7.45,76.77,-9
AOML_Brown,RB200305,240.953,28082003,22:51:45,18.970,-62.970,392.99,373.29,1014.13,1014.25,29.01,28.96,34.58,11.34,240.80,31.27,1014.13,-9,-9,351.40,13.78,376.30,2,358.08,2,18.23,0.59,7.93,77.04,-9
AOML_Brown,RB200305,240.956,28082003,22:56:15,18.970,-62.955,393.16,373.29,1014.06,1014.07,29.02,28.96,34.58,11.38,242.85,31.25,1014.06,-9,-9,354.00,13.78,376.25,2,358.08,2,18.17,0.60,7.57,78.43,-9
AOML_Brown,RB200305,240.959,28082003,23:00:45,18.970,-62.944,392.88,373.29,1014.01,1014.10,29.01,28.95,34.58,11.32,242.22,31.25,1014.01,-9,-9,353.40,13.28,376.01,2,358.08,2,17.93,0.60,7.28,85.41,-9
AOML_Brown,RB200305,240.970,28082003,23:17:19,18.971,-62.882,389.14,373.21,1014.10,1013.98,28.96,28.88,34.53,11.38,242.29,31.25,1014.10,-9,-9,349.00,13.28,372.27,2,358.14,2,14.13,0.60,7.37,70.68,-9
AOML_Brown,RB200305,240.973,28082003,23:21:44,18.971,-62.874,388.44,373.21,1014.17,1014.41,28.93,28.86,34.53,11.21,241.93,31.26,1014.17,-9,-9,349.40,13.78,371.80,2,358.14,2,13.66,0.60,8.00,73.71,-9
AOML_Brown,RB200305,240.977,28082003,23:26:15,18.971,-62.851,387.99,373.21,1014.15,1014.04,28.92,28.85,34.53,11.31,245.26,31.25,1014.15,-9,-9,353.60,13.68,371.25,2,358.14,2,13.11,0.60,7.78,80.39,-9
AOML_Brown,RB200305,240.980,28082003,23:30:45,18.971,-62.834,387.46,373.21,1014.11,1014.14,28.92,28.85,34.53,11.59,244.12,31.25,1014.11,-9,-9,347.50,14.18,370.83,2,358.14,2,12.70,0.60,8.31,69.73,-9
AOML_Brown,RB200305,240.991,28082003,23:47:16,18.972,-62.776,386.16,373.21,1014.42,1014.33,28.93,28.86,34.57,11.27,240.32,31.26,1014.42,-9,-9,358.90,11.88,369.64,2,358.14,2,11.50,0.59,5.46,88.30,-9
AOML_Brown,RB200305,240.994,28082003,23:51:45,18.972,-62.765,385.97,373.21,1014.51,1014.44,28.92,28.87,34.58,11.30,241.57,31.28,1014.51,-9,-9,347.70,14.38,369.78,2,358.14,2,11.65,0.60,8.44,70.85,-9
AOML_Brown,RB200305,240.997,28082003,23:56:15,18.973,-62.756,385.83,373.21,1014.51,1014.23,28.93,28.87,34.58,11.38,242.14,31.26,1014.51,-9,-9,349.30,13.18,369.56,2,358.14,2,11.42,0.59,6.95,71.88,-9
AOML_Brown,RB200305,241.001,29082003,00:00:45,18.973,-62.728,385.47,373.21,1014.51,1014.39,28.89,28.83,34.59,11.24,242.14,31.26,1014.51,-9,-9,351.20,13.38,369.15,2,358.14,2,11.01,0.59,7.15,75.75,-9
AOML_Brown,RB200305,241.012,29082003,00:17:19,18.973,-62.676,385.07,373.09,1014.59,1014.58,28.87,28.80,34.58,11.26,240.86,31.27,1014.59,-9,-9,345.50,13.78,368.78,2,358.23,2,10.55,0.60,7.69,62.95,-9
AOML_Brown,RB200305,241.015,29082003,00:21:45,18.973,-62.652,385.01,373.09,1014.57,1014.61,28.86,28.81,34.58,11.50,243.43,31.28,1014.57,-9,-9,352.70,13.68,368.87,2,358.23,2,10.64,0.59,7.30,77.62,-9
AOML_Brown,RB200305,241.018,29082003,00:26:14,18.973,-62.639,384.94,373.09,1014.57,1014.75,28.88,28.82,34.59,11.50,244.33,31.27,1014.57,-9,-9,347.10,13.08,368.65,2,358.23,2,10.41,0.60,6.97,66.40,-9
AOML_Brown,RB200305,241.021,29082003,00:30:45,18.974,-62.619,385.05,373.09,1014.68,1014.55,28.89,28.82,34.61,11.16,243.90,31.25,1014.68,-9,-9,353.40,13.98,368.72,2,358.23,2,10.49,0.59,7.78,78.68,-9
AOML_Brown,RB200305,241.033,29082003,00:47:16,18.974,-62.568,384.64,373.09,1014.99,1014.97,28.87,28.81,34.63,11.19,239.35,31.25,1014.99,-9,-9,356.30,13.98,368.65,2,358.23,2,10.41,0.59,7.42,83.62,-9
AOML_Brown,RB200305,241.036,29082003,00:51:45,18.974,-62.553,384.10,373.09,1014.94,1015.02,28.90,28.83,34.64,11.45,241.98,31.26,1014.94,-9,-9,352.70,13.98,367.94,2,358.23,2,9.70,0.59,7.70,75.06,-9
AOML_Brown,RB200305,241.039,29082003,00:56:15,18.978,-62.533,383.36,373.09,1015.00,1015.23,28.88,28.85,34.66,11.42,243.82,31.24,1015.00,-9,-9,345.80,13.58,367.72,2,358.23,2,9.49,0.60,7.75,65.23,-9
AOML_Brown,RB200305,241.042,29082003,01:00:45,18.983,-62.513,382.93,373.09,1015.10,1015.14,28.92,28.87,34.68,11.41,244.08,31.23,1015.10,-9,-9,8.10,12.09,367.05,2,358.23,2,8.82,0.59,5.74,82.16,-9
AOML_Brown,RB200305,241.054,29082003,01:17:19,19.010,-62.466,380.82,372.91,1015.07,1015.17,28.91,28.87,34.70,11.41,242.55,31.25,1015.07,-9,-9,15.10,14.08,365.20,2,358.24,2,6.97,0.60,7.87,88.40,-9
AOML_Brown,RB200305,241.057,29082003,01:21:45,19.021,-62.446,380.61,372.91,1014.95,1015.27,28.89,28.84,34.71,11.40,242.75,31.26,1014.95,-9,-9,15.00,14.58,364.78,2,358.24,2,6.55,0.60,8.40,87.32,-9
AOML_Brown,RB200305,241.060,29082003,01:26:15,19.026,-62.439,380.48,372.91,1015.33,1015.37,28.90,28.84,34.71,11.45,242.18,31.25,1015.33,-9,-9,8.20,13.78,364.76,2,358.24,2,6.53,0.60,7.42,76.35,-9
AOML_Brown,RB200305,241.063,29082003,01:30:45,19.038,-62.417,380.46,372.91,1015.19,1015.45,28.90,28.83,34.71,11.52,246.00,31.23,1015.19,-9,-9,12.70,12.99,364.46,2,358.24,2,6.23,0.60,7.00,86.17,-9
AOML_Brown,RB200305,241.074,29082003,01:47:16,19.065,-62.371,378.34,372.91,1015.27,1015.53,28.88,28.82,34.77,11.48,241.16,31.25,1015.27,-9,-9,11.00,13.58,362.71,2,358.24,2,4.47,0.60,7.04,82.41,-9
AOML_Brown,RB200305,241.078,29082003,01:51:45,19.079,-62.367,377.96,372.91,1015.70,1016.09,28.97,28.90,34.82,11.33,242.95,31.25,1015.70,-9,-9,81.50,1.20,362.28,2,358.24,2,4.05,0.60,6.62,69.58,-9
AOML_Brown,RB200305,241.081,29082003,01:56:15,19.076,-62.384,378.06,372.91,1015.73,1016.12,28.84,28.77,34.71,11.46,243.64,31.25,1015.73,-9,-9,93.40,1.60,362.48,2,358.24,2,4.24,0.59,7.22,75.22,-9
AOML_Brown,RB200305,241.084,29082003,02:00:45,19.077,-62.391,378.77,372.91,1015.69,1016.04,28.84,28.77,34.70,11.30,241.19,31.23,1015.69,-9,-9,85.60,2.90,363.10,2,358.24,2,4.87,0.59,7.27,66.19,-9
AOML_Brown,RB200305,241.095,29082003,02:17:19,19.076,-62.466,379.85,373.05,1015.71,1015.98,28.87,28.81,34.70,11.27,243.33,31.24,1015.71,-9,-9,85.10,2.60,364.30,2,358.55,2,5.75,0.60,7.69,67.75,-9
AOML_Brown,RB200305,241.098,29082003,02:21:45,19.076,-62.481,380.11,373.05,1015.68,1016.04,28.88,28.83,34.70,11.36,243.38,31.24,1015.68,-9,-9,101.80,1.80,364.56,2,358.55,2,6.01,0.59,7.42,74.50,-9
AOML_Brown,RB200305,241.102,29082003,02:26:15,19.075,-62.503,380.39,373.05,1015.74,1016.08,28.88,28.81,34.69,11.24,244.77,31.24,1015.74,-9,-9,83.40,3.69,364.69,2,358.55,2,6.14,0.59,7.62,60.10,-9
AOML_Brown,RB200305,241.105,29082003,02:30:45,19.075,-62.522,380.65,373.05,1015.74,1016.17,28.88,28.82,34.70,11.39,245.25,31.22,1015.74,-9,-9,82.90,4.80,365.07,2,358.55,2,6.52,0.60,8.14,54.95,-9
AOML_Brown,RB200305,241.116,29082003,02:47:16,19.075,-62.579,381.38,373.05,1015.75,1016.15,28.85,28.80,34.64,11.31,240.54,31.24,1015.75,-9,-9,82.20,2.80,365.94,2,358.55,2,7.39,0.59,7.22,66.92,-9
AOML_Brown,RB200305,241.119,29082003,02:51:45,19.074,-62.601,383.04,373.05,1015.86,1016.18,28.83,28.77,34.60,11.36,241.74,31.23,1015.86,-9,-9,91.10,1.10,367.37,2,358.55,2,8.82,0.60,7.11,79.69,-9
AOML_Brown,RB200305,241.122,29082003,02:56:15,19.074,-62.623,383.88,373.05,1015.79,1016.12,28.83,28.79,34.61,11.43,243.50,31.23,1015.79,-9,-9,96.80,3.60,368.39,2,358.55,2,9.85,0.60,8.42,61.42,-9
AOML_Brown,RB200305,241.126,29082003,03:00:45,19.074,-62.639,384.38,373.05,1015.85,1016.17,28.83,28.82,34.60,11.41,242.85,31.21,1015.85,-9,-9,130.30,2.40,369.38,2,358.55,2,10.83,0.59,7.24,72.77,-9
AOML_Brown,RB200305,241.137,29082003,03:17:19,19.073,-62.685,384.60,372.87,1015.63,1015.92,28.87,28.81,34.59,11.34,244.33,31.23,1015.63,-9,-9,148.10,1.00,368.81,2,358.25,2,10.56,0.59,6.27,81.48,-9
AOML_Brown,RB200305,241.140,29082003,03:21:45,19.073,-62.704,384.97,372.87,1015.55,1015.94,28.88,28.82,34.59,11.28,243.68,31.22,1015.55,-9,-9,130.90,2.10,369.10,2,358.25,2,10.85,0.59,8.32,76.10,-9
AOML_Brown,RB200305,241.143,29082003,03:26:15,19.073,-62.721,385.04,372.87,1015.53,1016.04,28.89,28.84,34.60,11.28,244.76,31.22,1015.53,-9,-9,107.50,1.00,369.33,2,358.25,2,11.08,0.59,7.31,80.72,-9
AOML_Brown,RB200305,241.146,29082003,03:30:45,19.073,-62.727,385.19,372.87,1015.53,1015.86,28.90,28.84,34.60,11.48,245.47,31.20,1015.53,-9,-9,82.70,1.10,369.28,2,358.25,2,11.03,0.59,7.04,79.08,-9
AOML_Brown,RB200305,241.158,29082003,03:47:16,19.072,-62.799,384.99,372.87,1015.45,1015.84,28.89,28.84,34.59,11.25,241.49,31.22,1015.45,-9,-9,99.80,1.50,369.19,2,358.25,2,10.94,0.59,7.30,74.34,-9
AOML_Brown,RB200305,241.161,29082003,03:51:45,19.072,-62.813,384.95,372.87,1015.51,1015.84,28.87,28.81,34.58,11.37,241.13,31.22,1015.51,-9,-9,121.60,1.20,369.04,2,358.25,2,10.79,0.59,7.69,78.17,-9
AOML_Brown,RB200305,241.164,29082003,03:56:15,19.071,-62.832,384.88,372.87,1015.49,1015.85,28.86,28.81,34.56,11.30,241.75,31.22,1015.49,-9,-9,92.00,1.20,369.21,2,358.25,2,10.96,0.59,7.19,76.21,-9
AOML_Brown,RB200305,241.167,29082003,04:00:45,19.071,-62.860,384.91,372.87,1015.38,1015.73,28.85,28.79,34.55,11.37,244.82,31.20,1015.38,-9,-9,67.80,2.80,368.97,2,358.25,2,10.72,0.59,6.38,63.76,-9
AOML_Brown,RB200305,241.179,29082003,04:17:19,19.070,-62.924,384.79,372.84,1015.08,1015.54,28.85,28.82,34.54,11.38,242.63,31.21,1015.08,-9,-9,146.80,1.40,369.12,2,357.97,2,11.15,0.60,8.26,79.97,-9
AOML_Brown,RB200305,241.182,29082003,04:21:45,19.070,-62.939,385.14,372.84,1015.03,1015.40,28.89,28.83,34.53,11.40,244.24,31.21,1015.03,-9,-9,92.50,0.70,369.11,2,357.97,2,11.14,0.59,7.06,79.82,-9
AOML_Brown,RB200305,241.185,29082003,04:26:15,19.070,-62.952,385.40,372.84,1015.00,1015.39,28.88,28.82,34.53,11.35,243.06,31.21,1015.00,-9,-9,76.20,1.10,369.24,2,357.97,2,11.27,0.59,6.72,78.34,-9
AOML_Brown,RB200305,241.188,29082003,04:30:45,19.070,-62.979,385.98,372.84,1014.94,1015.32,28.87,28.81,34.53,11.42,244.53,31.19,1014.94,-9,-9,73.30,0.30,369.81,2,357.97,2,11.83,0.59,6.97,84.25,-9
AOML_Brown,RB200305,241.199,29082003,04:47:16,19.069,-63.044,389.73,372.84,1014.76,1015.12,28.95,28.90,34.58,11.33,240.00,31.20,1014.76,-9,-9,127.40,1.00,373.49,2,357.97,2,15.52,0.59,7.70,80.79,-9
AOML_Brown,RB200305,241.203,29082003,04:51:45,19.069,-63.062,390.97,372.84,1014.71,1015.11,28.93,28.89,34.57,11.34,241.70,31.20,1014.71,-9,-9,90.30,2.00,374.71,2,357.97,2,16.74,0.59,7.34,70.21,-9